Starlink 30468

operational
NORAD ID: 57926 Int'l Des: 2023-147 Owner: SPXS Country: US Constellation: starlink
LEOCIRCULAR

关于 Starlink 30468

正在加载描述...

实时位置

正在加载3D地球...

即将过境

高度历史

Altitude vs Time

uPlot chart will show altitude changes over time

两行轨道根数

1 57926U 23147P 25306.28728058 .00000262 00000-0 34465-4 0 9998
2 57926 43.0035 298.3045 0001171 272.7063 87.3645 15.02535971117420
Epoch: Nov 2, 2025 • Age: 30 hours

当前状态

高度 562.6 km
速度 7.58 km/s
星下点 -17.78°S, 99.34°W
发射日期 Sep 24, 2023
运行时间 2.1 years
类型 internet

技术详情

分类 Payload
质量 730.00 kg
干质量 700.00 kg
总质量 730.00 kg
长度 0.30 m
直径 4.10 m
跨度 29.00 m
形状 Box + pan
制造商 SPXS
平台类型 Starlink V2M
阶段状态 In Orbit
所有者/国家 SPXS/US

大型星座

Loading constellations...